Change the Weather History Date:

Tuesday, November 27, 2012

  Actual Average Record
Temperature  
Mean Temperature 34 °F -  
Max Temperature 42 °F 52 °F 76 °F (1990)
Min Temperature 25 °F 37 °F 18 °F (1977)
Degree Days  
Heating Degree Days 31    
Moisture  
Dew Point 27 °F    
Average Humidity 75    
Maximum Humidity 93    
Minimum Humidity 49    
Precipitation  
Precipitation 0.03 in - - ()
Sea Level Pressure  
Sea Level Pressure 30.33 in    
Wind  
Wind Speed 6 mph (North)    
Max Wind Speed 12 mph    
Max Gust Speed -    
Visibility 8 miles    
Events Rain    
Averages and records for this station are not official NWS values.
T = Trace of Precipitation, MM = Missing Value Source: NWS Daily Summary

Daily Weather History Graph

Daily Weather History Graph

Search for Another Location

Airport or City:

Trip Planner

Search our weather history database for the weather conditions in past years. The results will help you decide how hot, cold, wet, or windy it might be!

Date:

Astronomy

Nov. 27, 2012 Rise Set
Actual Time 7:34 AM EST 5:16 PM EST
Civil Twilight 7:04 AM EST 5:45 PM EST
Nautical Twilight 6:31 AM EST 6:18 PM EST
Astronomical Twilight 5:59 AM EST 6:50 PM EST
Moon 4:47 PM EST (11/27) 6:38 AM EST (11/27)
Length of Visible Light 10h 40m
Length of Day
9h 42m
Waxing Gibbous, 99% of the Moon is Illuminated
Nov 27
Waxing Gibbous
Nov 28
Full
Dec 6
Last Quarter
Dec 13
New
Dec 20
First Quarter

Hourly Weather History & Observations

Time (EST) Temp. Windchill Dew Point Humidity Pressure Visibility Wind Dir Wind Speed Gust Speed Precip Events Conditions
12:53 AM 39.0 °F 31.8 °F 33.1 °F 79% 30.28 in 7.0 mi North 11.5 mph - 0.01 in Rain Light Rain
1:28 AM 37.4 °F 32.1 °F 33.8 °F 87% 30.26 in 5.0 mi NNE 6.9 mph - 0.02 in Rain Light Rain
1:53 AM 37.0 °F 31.6 °F 33.1 °F 86% 30.27 in 6.0 mi North 6.9 mph - 0.02 in Rain Light Rain
2:12 AM 35.6 °F 31.7 °F 33.8 °F 93% 30.27 in 5.0 mi North 4.6 mph - 0.00 in Rain Light Rain
2:45 AM 35.6 °F 31.7 °F 33.8 °F 93% 30.27 in 5.0 mi NE 4.6 mph - 0.00 in Rain Light Rain
2:53 AM 36.0 °F 32.1 °F 33.1 °F 89% 30.27 in 5.0 mi ENE 4.6 mph - 0.00 in Rain Light Rain
3:53 AM 36.0 °F - 34.0 °F 93% 30.28 in 4.0 mi Calm Calm - 0.00 in   Overcast
4:53 AM 35.1 °F 28.6 °F 30.0 °F 82% 30.28 in 9.0 mi North 8.1 mph - N/A   Overcast
5:53 AM 34.0 °F 28.8 °F 28.0 °F 79% 30.29 in 10.0 mi North 5.8 mph - N/A   Overcast
6:22 AM 33.8 °F 26.4 °F 28.4 °F 81% 30.29 in 10.0 mi North 9.2 mph - N/A   Mostly Cloudy
6:53 AM 33.1 °F 26.1 °F 27.0 °F 78% 30.32 in 10.0 mi North 8.1 mph - N/A   Clear
7:53 AM 32.0 °F 25.6 °F 26.1 °F 79% 30.34 in 10.0 mi North 6.9 mph - N/A   Clear
8:53 AM 34.0 °F 27.2 °F 26.1 °F 73% 30.37 in 10.0 mi North 8.1 mph - N/A   Clear
9:53 AM 36.0 °F 29.6 °F 27.0 °F 70% 30.37 in 10.0 mi North 8.1 mph - N/A   Clear
10:53 AM 39.0 °F 32.8 °F 26.1 °F 60% 30.38 in 10.0 mi North 9.2 mph - N/A   Clear
11:53 AM 39.0 °F 34.8 °F 27.0 °F 62% 30.38 in 10.0 mi NE 5.8 mph - N/A   Mostly Cloudy
12:53 PM 42.1 °F 39.2 °F 27.0 °F 55% 30.35 in 10.0 mi NW 4.6 mph - N/A   Mostly Cloudy
1:53 PM 41.0 °F 38.0 °F 26.1 °F 55% 30.33 in 10.0 mi Variable 4.6 mph - N/A   Scattered Clouds
2:53 PM 42.1 °F 38.4 °F 25.0 °F 51% 30.32 in 10.0 mi North 5.8 mph - N/A   Partly Cloudy
3:53 PM 41.0 °F 37.1 °F 23.0 °F 49% 30.31 in 10.0 mi North 5.8 mph - N/A   Clear
4:53 PM 37.9 °F 32.7 °F 24.1 °F 57% 30.33 in 10.0 mi North 6.9 mph - N/A   Clear
5:53 PM 34.0 °F 28.8 °F 23.0 °F 64% 30.35 in 10.0 mi North 5.8 mph - N/A   Clear
6:53 PM 33.1 °F 30.0 °F 21.9 °F 64% 30.36 in 10.0 mi NE 3.5 mph - N/A   Clear
7:53 PM 30.0 °F - 24.1 °F 79% 30.37 in 9.0 mi Calm Calm - N/A   Clear
8:53 PM 28.9 °F - 24.1 °F 82% 30.37 in 8.0 mi Calm Calm - N/A   Clear
9:53 PM 28.0 °F - 23.0 °F 81% 30.37 in 8.0 mi Calm Calm - N/A   Clear
10:53 PM 26.1 °F - 23.0 °F 88% 30.37 in 5.0 mi Calm Calm - N/A   Clear
11:53 PM 25.0 °F - 21.9 °F 88% 30.36 in 5.0 mi Calm Calm - N/A   Clear